This is the latest recevied weather packets stored in our database for station/object W5ITZ. If no packets are shown the sender has not sent any weather packets the latest 10 day(s).
| Time | Temp. | Humidity | Pressure | Rain* | Wind** | Luminosity | Snow |
|---|---|---|---|---|---|---|---|
| 1787401686 | 25° C | 98% | 1017.3 hPa | 0 mm | - | 35 W/m² | - |
| 1787401382 | 25° C | 98% | 1017.1 hPa | 0 mm | - | 26 W/m² | - |
| 1787401077 | 25° C | 98% | 1017.1 hPa | 0 mm | - | 18 W/m² | - |
| 1787400773 | 25° C | 98% | 1017.1 hPa | 0 mm | - | 12 W/m² | - |
| 1787400472 | 25° C | 98% | 1016.5 hPa | 0 mm | - | 7 W/m² | - |
| 1787400169 | 24.44° C | 98% | 1016.8 hPa | 0 mm | - | 4 W/m² | - |
| 1787399865 | 24.44° C | 98% | 1016.7 hPa | 0 mm | - | 2 W/m² | - |
| 1787399561 | 25° C | 98% | 1016.8 hPa | 0 mm | - | 1 W/m² | - |
| 1787399259 | 25° C | 98% | 1016.7 hPa | 0 mm | - | 0 W/m² | - |
| 1787399074 | 24.44° C | 98% | 1016.8 hPa | 0 mm | - | 0 W/m² | - |
| 1787398650 | 24.44° C | 98% | 1016.7 hPa | 0 mm | - | 0 W/m² | - |
| 1787398346 | 24.44° C | 97% | 1016.7 hPa | 0 mm | - | 0 W/m² | - |
| 1787398041 | 23.89° C | 97% | 1016.5 hPa | 0 mm | - | 0 W/m² | - |
| 1787397741 | 23.89° C | 97% | 1016.7 hPa | 0 mm | - | 0 W/m² | - |
| 1787397436 | 24.44° C | 97% | 1016.8 hPa | 0 mm | - | 0 W/m² | - |
| 1787397131 | 25° C | 97% | 1016.8 hPa | 0 mm | - | 0 W/m² | - |
| 1787396827 | 25° C | 97% | 1017 hPa | 0 mm | - | 0 W/m² | - |
| 1787396523 | 25° C | 97% | 1016.8 hPa | 0 mm | - | 0 W/m² | - |
| 1787396222 | 25° C | 97% | 1016.4 hPa | 0 mm | - | 0 W/m² | - |
| 1787395917 | 25° C | 97% | 1016.5 hPa | 0 mm | - | 0 W/m² | - |
| 1787395612 | 25° C | 97% | 1016.4 hPa | 0 mm | - | 0 W/m² | - |
| 1787395307 | 25° C | 97% | 1016.3 hPa | 0 mm | - | 0 W/m² | - |
| 1787395006 | 25° C | 97% | 1016.5 hPa | 0 mm | - | 0 W/m² | - |
| 1787394798 | 25.56° C | 97% | 1016.4 hPa | 0 mm | - | 0 W/m² | - |
| 1787394398 | 25.56° C | 97% | 1016.4 hPa | 0 mm | - | 0 W/m² | - |
* Rain latest hour (hover to see other rain measurements)
** Current wind speed in m/s (hover to see current wind gust speed)